Find Starlink 32898

NORAD ID: 62998 Int'l Des: 2025-031 Owner: SPXS Country: US Constellation: starlink operational
LEOCIRCULAR

Current View

Loading 3D Globe...

About Starlink 32898

Starlink 32898 (NORAD 62998) is a starlink constellation satellite (v2 mini) launched Feb 11, 2025 by SPXS of US. It operates in LEO, CIRCULAR orbit with a mass of 730.00 kg.

About Starlink 32898

Description loading...

Upcoming Passes

Passes for default location (London). Set your location on the main map for personalized predictions.

Altitude History

Loading altitude history...

Two-Line Element Set

1 62998U 25031T 26171.28818913 .00022889 00000-0 83842-3 0 9999
2 62998 42.9984 284.1500 0000996 262.7136 97.3602 15.27591847 76787
Epoch: Jun 20, 2026 • Age: 8 hours

Current Status

Altitude 494.9 km
Velocity 7.62 km/s
Sub-Earth Point -41.23°S, 87.82°E
Launch Date Feb 11, 2025
Age 1.3 years
Type internet

Technical Details

Classification Payload
Mass 730.00 kg
Dry Mass 700.00 kg
Total Mass 730.00 kg
Length 0.30 m
Diameter 4.10 m
Span 29.00 m
Shape Box + pan
Manufacturer SPXS
Bus Type Starlink V2M
Phase Status In Orbit
Owner/State SPXS/US

Most Searched